Simultaneous Nadir Overpasses (SNOs) Predictions

Prediction of SNOs between GOES-16 and LANDSAT-8 Satellite Orbit:

Table of predicted SNOs for the next 14.0 days since TLE Epoch: 6/13/2020
Index Date Time (GOES-16) GOES-16 Lat,Lon LANDSAT-8 Lat,Lon Distance(km) Time Diff (sec)
1 06/13/2020 03:24:14 -0.01, -75.16 0.00, -77.74 287.41 80
2 06/15/2020 03:09:15 -0.02, -75.17 0.09, -74.67 57.06 80
3 06/17/2020 02:57:05 -0.02, -75.19 0.73, -71.72 395.39 80
4 06/17/2020 15:18:21 0.02, -75.22 0.36, -76.88 187.78 80
5 06/19/2020 15:08:51 0.02, -75.25 -0.29, -73.92 150.89 80
6 06/20/2020 03:30:15 -0.01, -75.23 -0.84, -79.11 441.22 80
7 06/21/2020 14:56:41 0.01, -75.27 -0.93, -70.97 489.56 80
8 06/22/2020 03:18:05 -0.01, -75.26 -0.20, -76.16 102.51 80
9 06/24/2020 03:03:15 -0.00, -75.28 0.45, -73.21 236.54 80
10 06/24/2020 15:24:31 0.00, -75.31 0.64, -78.36 346.61 80
11 06/26/2020 15:12:21 0.00, -75.35 -0.01, -75.41 7.43 80




NCC Satellite Simultaneous Nadir Overpasses (SNOs) Prediction Service
